DW3319 Weather Reports


Display with metric or nautical units.
time (UTC)temp
F
wind
direction
speed
MPH
gust
MPH
rain 1hr
in
rain 24hr
in
rain mn
in
humidity
%
barometer
mb
20260506131544 76 156 3.0 6.0 0.00 0.00 0.00 97 1011.2
20260506130045 75 148 2.0 5.0 0.00 0.00 0.00 97 1011.4
20260506124546 75 137 2.0 5.0 0.00 0.00 0.00 97 1011.2
20260506123044 75 144 3.0 7.0 0.00 0.00 0.00 97 1010.9
20260506121538 75 165 3.0 6.0 0.00 0.00 0.00 97 1010.7
20260506120104 75 164 3.0 6.0 0.00 0.00 0.00 97 1010.5
20260506114547 75 153 3.0 9.0 0.00 0.00 0.00 97 1010.6
20260506113044 75 160 3.0 7.0 0.00 0.00 0.00 97 1010.4
20260506111544 75 157 4.0 9.0 0.00 0.00 0.00 97 1010.3
20260506110041 75 153 4.0 10.0 0.00 0.00 0.00 97 1010.2
20260506104541 75 142 4.0 10.0 0.00 0.00 0.00 97 1009.9
20260506103044 75 173 4.0 9.0 0.00 0.00 0.00 97 1009.9
20260506101548 75 160 4.0 11.0 0.00 0.00 0.00 97 1009.8
20260506100044 75 168 5.0 10.0 0.00 0.00 0.00 97 1009.8
20260506094546 75 163 4.0 10.0 0.00 0.00 0.00 97 1009.9
20260506093046 75 184 3.0 8.0 0.00 0.00 0.00 97 1010.0
20260506091538 75 163 4.0 9.0 0.00 0.00 0.00 97 1010.2
20260506090045 75 163 2.0 6.0 0.00 0.00 0.00 96 1010.3
20260506084537 75 157 1.0 7.0 0.00 0.00 0.00 96 1010.4
20260506083045 75 221 1.0 9.0 0.00 0.00 0.00 96 1010.4
20260506081549 74 137 0.0 2.0 0.00 0.00 0.00 96 1010.5
20260506073050 75 93 3.0 7.0 0.00 0.00 0.00 96 1010.6
20260506071550 75 163 3.0 8.0 0.00 0.00 0.00 95 1010.7
20260506070107 75 212 4.0 9.0 0.00 0.00 0.00 95 1010.7
20260506061538 75 177 5.0 10.0 0.00 0.00 0.00 94 1010.7
20260506044556 75 157 3.0 9.0 0.00 0.00 0.00 94 1011.0
20260506043046 75 173 5.0 11.0 0.00 0.00 0.00 93 1010.9
20260506041551 75 159 4.0 11.0 0.00 0.00 0.00 93 1010.8
20260506040046 75 149 8.0 16.0 0.00 0.00 0.00 93 1010.7
20260506034542 75 171 5.0 14.0 0.00 0.00 0.00 93 1010.8
20260506033038 75 171 7.0 15.0 0.00 0.00 0.00 93 1010.5
20260506031553 75 215 7.0 12.0 0.00 0.00 0.00 94 1010.4
20260506024546 75 155 6.0 14.0 0.00 0.00 0.00 94 1010.0
20260506023045 75 155 7.0 15.0 0.00 0.00 0.00 94 1009.8
20260506021539 76 167 6.0 16.0 0.00 0.00 0.00 93 1009.6
20260506020037 76 173 6.0 14.0 0.00 0.00 0.00 92 1009.6
20260506014544 76 162 6.0 13.0 0.00 0.00 0.00 92 1009.5
20260506013048 76 171 6.0 13.0 0.00 0.00 0.00 92 1009.4
20260506011552 76 182 6.0 16.0 0.00 0.00 0.00 92 1009.2
20260506010044 76 175 8.0 18.0 0.00 0.00 0.00 92 1009.1
20260506004610 76 151 5.0 14.0 0.00 0.00 0.00 92 1008.9
20260506003045 76 153 7.0 12.0 0.00 0.00 0.00 91 1009.0
20260506001545 77 178 7.0 15.0 0.00 0.00 0.00 92 1009.1
20260506000048 77 167 6.0 14.0 0.00 0.00 0.00 91 1009.2
20260505234609 77 151 5.0 18.0 0.00 0.00 0.00 91 1009.0
20260505233044 77 221 7.0 19.0 0.00 0.00 0.00 91 1009.1
20260505231542 77 175 5.0 18.0 0.00 0.00 0.00 91 1009.2
20260505230051 77 163 7.0 18.0 0.00 0.00 0.00 91 1009.1
20260505224544 78 177 6.0 16.0 0.00 0.00 0.00 90 1009.0
20260505223059 78 201 5.0 14.0 0.00 0.00 0.00 91 1009.1
20260505221557 78 139 6.0 13.0 0.00 0.00 0.00 90 1009.0
20260505220057 78 163 4.0 12.0 0.00 0.00 0.00 90 1009.1
20260505214552 78 211 7.0 15.0 0.00 0.00 0.00 89 1009.2
20260505213049 79 202 5.0 18.0 0.00 0.00 0.00 88 1009.4
20260505211544 78 168 5.0 16.0 0.00 0.00 0.00 88 1009.5
20260505210047 78 191 5.0 19.0 0.00 0.00 0.00 88 1009.7
20260505204543 78 158 7.0 14.0 0.00 0.00 0.00 88 1009.9
20260505203045 78 225 4.0 15.0 0.00 0.00 0.00 87 1010.1
20260505201542 78 162 4.0 15.0 0.00 0.00 0.00 87 1010.0
20260505200059 78 203 3.0 19.0 0.00 0.00 0.00 86 1010.2
20260505194550 79 175 4.0 12.0 0.00 0.00 0.00 86 1010.3
20260505193042 79 144 4.0 18.0 0.00 0.00 0.00 86 1010.2
20260505191543 79 146 5.0 17.0 0.00 0.00 0.00 86 1010.3
20260505190049 79 193 4.0 15.0 0.00 0.00 0.00 86 1010.4
20260505184538 79 252 4.0 17.0 0.00 0.00 0.00 85 1010.5
20260505183048 80 173 6.0 17.0 0.00 0.00 0.00 84 1010.5
20260505181545 80 167 5.0 20.0 0.00 0.00 0.00 85 1010.7
20260505180044 78 178 3.0 17.0 0.00 0.00 0.00 86 1010.7
20260505174546 78 170 5.0 19.0 0.00 0.00 0.00 86 1010.9
20260505173044 78 185 5.0 13.0 0.00 0.00 0.00 86 1011.0
20260505171545 77 175 7.0 19.0 0.00 0.00 0.00 86 1011.1
20260505170044 78 228 4.0 17.0 0.00 0.00 0.00 85 1011.1
20260505164544 78 153 7.0 18.0 0.00 0.00 0.00 84 1010.9
20260505163042 79 225 6.0 23.0 0.00 0.00 0.00 83 1010.9
20260505161540 78 236 7.0 25.0 0.00 0.00 0.00 84 1010.9
20260505153048 78 162 10.0 22.0 0.00 0.00 0.00 84 1010.9
20260505151545 77 221 3.0 12.0 0.00 0.00 0.00 85 1011.2